User: anonymous   Login
Location: Ostrava
(49.8330°N, 18.2830°E)
Time: 04:52:24
(UTC+02:00)
Language:

Cosmos 2219 Rocket - Orbit

View from above orbital plane
View from above orbital plane
View from above satellite
View from above satellite

Ground track
Ground track

The orbit data is extracted from the following two-line orbital elements,

1 22220U 92076B   16239.18820958  .00000124  00000-0  86305-4 0  9997
2 22220  71.0019 320.2005 0013053 352.4349  31.8156 14.16403061229005
Epoch (UTC): 26 August 2016 04:31:01
Eccentricity: 0.0013053
inclination: 71.0019°
perigee height: 828 km
apogee height: 847 km
right ascension of ascending node: 320.2005°
argument of perigee: 352.4349°
revolutions per day: 14.16403061
mean anomaly at epoch: 31.8156°
orbit number at epoch: 22900

The dashed part of the orbit path shows where the satellite is in the earth's shadow,  

DLR